Retour au catalogue

STARLINK-32502

ActifCommunicationsVLEO
NORAD 62116·PAYLOAD·🇺🇸 United States

Lancé Nov 27, 2024 depuis Cape Canaveral Space Force Station

Loading…

Prochains Passages (prochaines 24 heures)

TLE

FraisSource: CelesTrak SupGP

Époque: Sep 14, 2026, 20:46 UTC

1 62116C 24222C   26257.86576389 -.00026622  00000+0 -96430-3 0  2573
2 62116  43.0024 147.9334 0001303 272.5312 305.7400 15.27590812    11

Suivez STARLINK-32502 en temps réel avec AllMySat

Download on the App Store